Weather History for KPSX - December, 2012

Change the Weather History Date:

Tuesday, December 25, 2012

  Actual Average Record
Temperature  
Mean Temperature 60 °F -  
Max Temperature 80 °F 60 °F 80 °F (2012)
Min Temperature 37 °F 41 °F 14 °F (1983)
Degree Days  
Heating Degree Days 6    
Growing Degree Days 10 (Base 50)    
Moisture  
Dew Point 51 °F    
Average Humidity 64    
Maximum Humidity 88    
Minimum Humidity 13    
Precipitation  
Precipitation 0.00 in - - ()
Sea Level Pressure  
Sea Level Pressure 29.74 in    
Wind  
Wind Speed 18 mph (WSW)    
Max Wind Speed 33 mph    
Max Gust Speed 53 mph    
Visibility 9 miles    
Events Snow    
Averages and records for this station are not official NWS values.
T = Trace of Precipitation, MM = Missing Value Source: NWS Daily Summary

Daily Weather History Graph

Daily Weather History Graph

Search for Another Location

Airport or City:

Trip Planner

Search our weather history database for the weather conditions in past years. The results will help you decide how hot, cold, wet, or windy it might be!

Date:

Astronomy

Dec. 25, 2012 Rise Set
Actual Time 7:15 AM CST 5:35 PM CST
Civil Twilight 6:49 AM CST 6:01 PM CST
Nautical Twilight 6:20 AM CST 6:30 PM CST
Astronomical Twilight 5:51 AM CST 6:59 PM CST
Moon 3:41 PM CST (12/25) 4:52 AM CST (12/25)
Length of Visible Light 11h 11m
Length of Day
10h 19m
Waxing Gibbous, 94% of the Moon is Illuminated
Dec 25
Waxing Gibbous
Dec 28
Full
Jan 4
Last Quarter
Jan 11
New
Jan 18
First Quarter

Hourly Weather History & Observations

Time (CST) Temp. Windchill Dew Point Humidity Pressure Visibility Wind Dir Wind Speed Gust Speed Precip Events Conditions
12:53 AM 70.0 °F - 66.0 °F 87% 29.72 in 10.0 mi SSE 11.5 mph - N/A   Clear
1:53 AM 71.1 °F - 66.9 °F 87% 29.70 in 10.0 mi SSE 13.8 mph - N/A   Mostly Cloudy
2:53 AM 70.0 °F - 66.0 °F 87% 29.66 in 10.0 mi SSE 12.7 mph - N/A   Mostly Cloudy
3:53 AM 70.0 °F - 66.0 °F 87% 29.64 in 10.0 mi SSE 23.0 mph - N/A   Scattered Clouds
4:53 AM 71.1 °F - 66.0 °F 84% 29.63 in 10.0 mi SSE 16.1 mph 20.7 mph N/A   Mostly Cloudy
5:53 AM 71.1 °F - 66.0 °F 84% 29.63 in 9.0 mi South 12.7 mph - N/A   Overcast
6:31 AM 71.6 °F - 66.2 °F 83% 29.62 in 9.0 mi South 13.8 mph - N/A   Overcast
6:53 AM 70.0 °F - 66.0 °F 87% 29.60 in 8.0 mi South 16.1 mph - N/A   Overcast
7:12 AM 69.8 °F - 66.2 °F 88% 29.61 in 8.0 mi South 15.0 mph 23.0 mph N/A   Overcast
7:53 AM 70.0 °F - 66.0 °F 87% 29.61 in 5.0 mi South 13.8 mph - N/A   Overcast
8:26 AM 71.6 °F - 66.2 °F 83% 29.62 in 4.0 mi South 15.0 mph - N/A   Haze
8:53 AM 71.1 °F - 66.0 °F 84% 29.63 in 5.0 mi SSW 16.1 mph 21.9 mph N/A   Haze
9:53 AM 75.0 °F - 66.9 °F 76% 29.67 in 8.0 mi SSW 18.4 mph 25.3 mph N/A   Mostly Cloudy
10:53 AM 77.0 °F - 66.9 °F 71% 29.69 in 10.0 mi WSW 20.7 mph 31.1 mph N/A   Mostly Cloudy
11:08 AM 77.0 °F - 66.2 °F 69% 29.69 in 10.0 mi WSW 18.4 mph - N/A   Mostly Cloudy
11:53 AM 79.0 °F - 55.9 °F 45% 29.69 in 10.0 mi West 25.3 mph 39.1 mph N/A   Partly Cloudy
12:53 PM 80.1 °F - 44.1 °F 28% 29.68 in 10.0 mi WNW 25.3 mph 38.0 mph N/A   Clear
2:53 PM 80.1 °F - 25.0 °F 13% 29.69 in 10.0 mi WNW 25.3 mph 41.4 mph N/A   Clear
3:53 PM 77.0 °F - 35.1 °F 22% 29.71 in 10.0 mi NW 24.2 mph 42.6 mph N/A   Clear
4:53 PM 72.0 °F - 33.1 °F 24% 29.75 in 10.0 mi NW 18.4 mph 33.4 mph N/A   Clear
5:53 PM 64.9 °F - 30.9 °F 28% 29.81 in 10.0 mi NNW 33.4 mph 43.7 mph N/A   Clear
6:53 PM 50.0 °F - 30.0 °F 46% 29.90 in 10.0 mi NNW 33.4 mph 52.9 mph N/A   Clear
7:53 PM 46.9 °F - 27.0 °F 46% 29.96 in 10.0 mi NNW 28.8 mph 41.4 mph N/A   Clear
8:53 PM 43.0 °F 32.4 °F 26.1 °F 51% 30.00 in 10.0 mi NNW 31.1 mph 47.2 mph N/A   Clear
9:53 PM 41.0 °F 29.8 °F 26.1 °F 55% 30.04 in 10.0 mi NNW 29.9 mph 40.3 mph N/A   Clear
10:53 PM 39.0 °F 28.5 °F 24.1 °F 55% 30.06 in 10.0 mi NNW 23.0 mph 35.7 mph N/A   Clear
11:53 PM 37.0 °F 25.6 °F 24.1 °F 59% 30.09 in 9.0 mi NNW 24.2 mph 34.5 mph 0.00 in Snow Light Snow